TimeEDT,TemperatureF,Dew PointF,Humidity,Sea Level PressureIn,VisibilityMPH,Wind Direction,Wind SpeedMPH,Gust SpeedMPH,PrecipitationIn,Events,Conditions,WindDirDegrees,DateUTC
12:15 AM,75.2,69.8,83,30.00,10.0,NNE,6.9,-,N/A,,Clear,20,2013-07-26 04:15:00
12:35 AM,75.2,69.8,83,30.00,10.0,NNE,6.9,-,N/A,,Clear,20,2013-07-26 04:35:00
12:55 AM,75.2,69.8,83,30.01,10.0,NNE,5.8,-,N/A,,Clear,20,2013-07-26 04:55:00
1:15 AM,73.4,69.8,88,30.00,10.0,NNE,6.9,-,N/A,,Clear,20,2013-07-26 05:15:00
1:35 AM,73.4,69.8,88,30.00,10.0,North,9.2,-,N/A,,Clear,10,2013-07-26 05:35:00
1:55 AM,73.4,69.8,88,30.00,10.0,NNE,6.9,-,N/A,,Clear,20,2013-07-26 05:55:00
2:15 AM,73.4,69.8,88,29.99,10.0,NNE,9.2,-,N/A,,Clear,20,2013-07-26 06:15:00
2:35 AM,73.4,69.8,88,29.99,10.0,NNE,6.9,-,N/A,,Clear,20,2013-07-26 06:35:00
2:55 AM,73.4,69.8,88,30.00,10.0,NNE,6.9,-,N/A,,Clear,30,2013-07-26 06:55:00
3:15 AM,73.4,69.8,88,30.00,10.0,NNE,6.9,-,N/A,,Clear,30,2013-07-26 07:15:00
3:35 AM,73.4,69.8,88,30.00,10.0,NNE,8.1,-,N/A,,Clear,30,2013-07-26 07:35:00
3:55 AM,73.4,69.8,88,30.00,10.0,NE,6.9,-,N/A,,Clear,40,2013-07-26 07:55:00
4:15 AM,71.6,69.8,94,30.01,10.0,NNE,6.9,-,N/A,,Clear,20,2013-07-26 08:15:00
4:35 AM,71.6,69.8,94,30.01,10.0,NNE,6.9,-,N/A,,Clear,30,2013-07-26 08:35:00
4:55 AM,71.6,68.0,88,30.01,10.0,NE,6.9,-,N/A,,Clear,40,2013-07-26 08:55:00
5:15 AM,71.6,68.0,88,30.02,10.0,NE,6.9,-,N/A,,Clear,50,2013-07-26 09:15:00
5:35 AM,71.6,68.0,88,30.02,10.0,NE,5.8,-,N/A,,Clear,40,2013-07-26 09:35:00
5:45 AM,71.6,68.0,88,30.02,10.0,NE,5.8,-,N/A,,Clear,40,2013-07-26 09:45:00
6:54 AM,71.6,68.0,88,30.04,10.0,North,5.8,-,N/A,,Clear,10,2013-07-26 10:54:00
8:45 AM,73.4,69.8,88,30.07,10.0,ENE,5.8,-,N/A,,Mostly Cloudy,70,2013-07-26 12:45:00
9:53 AM,78.8,71.6,78,30.07,10.0,East,10.4,-,N/A,,Mostly Cloudy,80,2013-07-26 13:53:00
10:50 AM,82.4,73.4,74,30.08,8.0,East,8.1,-,N/A,,Mostly Cloudy,90,2013-07-26 14:50:00
11:50 AM,82.4,73.4,74,30.09,10.0,East,11.5,-,N/A,,Mostly Cloudy,90,2013-07-26 15:50:00
12:45 PM,82.4,73.4,74,30.09,10.0,East,11.5,-,N/A,,Scattered Clouds,90,2013-07-26 16:45:00
1:45 PM,82.4,73.4,74,30.08,10.0,SE,8.1,-,N/A,,Clear,130,2013-07-26 17:45:00
2:45 PM,82.4,73.4,74,30.07,10.0,SE,8.1,-,N/A,,Scattered Clouds,140,2013-07-26 18:45:00
3:50 PM,82.4,73.4,74,30.05,10.0,SE,9.2,-,N/A,,Clear,130,2013-07-26 19:50:00
4:50 PM,82.4,73.4,74,30.04,10.0,SE,5.8,-,N/A,,Partly Cloudy,130,2013-07-26 20:50:00
5:45 PM,82.4,73.4,74,30.04,10.0,ESE,6.9,-,N/A,,Partly Cloudy,120,2013-07-26 21:45:00
6:45 PM,80.6,71.6,74,30.04,10.0,SE,10.4,-,N/A,,Partly Cloudy,140,2013-07-26 22:45:00
7:45 PM,78.8,71.6,78,30.05,10.0,SE,9.2,-,N/A,,Partly Cloudy,140,2013-07-26 23:45:00
8:45 PM,78.8,71.6,78,30.05,10.0,ESE,9.2,-,N/A,,Clear,120,2013-07-27 00:45:00
9:50 PM,77.0,69.8,78,30.05,10.0,ESE,6.9,-,N/A,,Clear,120,2013-07-27 01:50:00
10:45 PM,77.0,69.8,78,30.06,10.0,Calm,Calm,-,N/A,,Clear,0,2013-07-27 02:45:00
11:15 PM,77.0,69.8,78,30.07,10.0,SE,10.4,-,N/A,,Clear,130,2013-07-27 03:15:00
11:35 PM,77.0,69.8,78,30.06,10.0,ESE,9.2,-,N/A,,Clear,120,2013-07-27 03:35:00
11:55 PM,77.0,69.8,78,30.06,10.0,ESE,10.4,-,N/A,,Clear,120,2013-07-27 03:55:00